Time,TemperatureF,DewpointF,PressureIn,WindDirection,WindDirectionDegrees,WindSpeedMPH,WindSpeedGustMPH,Humidity,HourlyPrecipIn,Conditions,Clouds,dailyrainin,SoftwareType,DateUTC
2013-03-12 09:04:00,48.5,39.2,30.16,NNE,25,2.0,2.0,70,0.00,,,0.00,Wunderground v.1.15,2013-03-12 14:04:00,
2013-03-12 09:05:00,48.6,39.3,30.16,NNE,12,2.0,2.0,70,0.00,,,0.00,Wunderground v.1.15,2013-03-12 14:05:00,
2013-03-12 09:10:00,49.3,39.9,30.16,NW,311,2.0,2.0,70,0.00,,,0.00,Wunderground v.1.15,2013-03-12 14:10:00,
2013-03-12 09:15:00,50.1,39.2,30.16,North,356,1.0,2.0,66,0.00,,,0.00,Wunderground v.1.15,2013-03-12 14:15:00,
2013-03-12 09:20:00,50.5,40.3,30.16,NW,321,2.0,2.0,68,0.00,,,0.00,Wunderground v.1.15,2013-03-12 14:20:00,
2013-03-12 09:25:00,51.0,40.4,30.16,North,356,1.0,2.0,67,0.00,,,0.00,Wunderground v.1.15,2013-03-12 14:25:00,
2013-03-12 09:30:00,51.8,40.4,30.16,WNW,300,1.0,3.0,65,0.00,,,0.00,Wunderground v.1.15,2013-03-12 14:30:00,
2013-03-12 09:35:00,52.1,39.9,30.16,North,352,2.0,3.0,63,0.00,,,0.00,Wunderground v.1.15,2013-03-12 14:35:00,
2013-03-12 09:40:00,52.7,39.2,30.16,NW,314,2.0,2.0,60,0.00,,,0.00,Wunderground v.1.15,2013-03-12 14:40:00,
2013-03-12 09:45:00,53.2,39.2,30.17,ENE,71,2.0,2.0,59,0.00,,,0.00,Wunderground v.1.15,2013-03-12 14:45:00,
2013-03-12 09:50:00,53.5,39.5,30.17,NNW,342,2.0,2.0,59,0.00,,,0.00,Wunderground v.1.15,2013-03-12 14:50:00,
2013-03-12 09:55:00,53.9,39.9,30.17,ENE,68,2.0,2.0,59,0.00,,,0.00,Wunderground v.1.15,2013-03-12 14:55:00,
2013-03-12 10:00:00,54.4,39.0,30.17,ENE,63,2.0,2.0,56,0.00,,,0.00,Wunderground v.1.15,2013-03-12 15:00:00,
2013-03-12 10:05:00,54.9,40.4,30.17,WNW,295,1.0,2.0,58,0.00,,,0.00,Wunderground v.1.15,2013-03-12 15:05:00,
2013-03-12 10:14:00,55.0,39.1,30.17,NNE,20,2.0,2.0,55,0.00,,,0.00,Wunderground v.1.15,2013-03-12 15:14:00,
2013-03-12 10:19:00,55.1,38.7,30.17,NNW,348,2.0,3.0,54,0.00,,,0.00,Wunderground v.1.15,2013-03-12 15:19:00,
2013-03-12 10:24:00,54.9,38.1,30.17,NNW,338,2.0,3.0,53,0.00,,,0.00,Wunderground v.1.15,2013-03-12 15:24:00,
2013-03-12 10:29:00,55.0,38.6,30.17,NNE,19,3.0,3.0,54,0.00,,,0.00,Wunderground v.1.15,2013-03-12 15:29:00,
2013-03-12 10:34:00,55.5,38.6,30.17,NW,308,2.0,3.0,53,0.00,,,0.00,Wunderground v.1.15,2013-03-12 15:34:00,
2013-03-12 10:40:00,55.9,38.0,30.17,East,81,2.0,2.0,51,0.00,,,0.00,Wunderground v.1.15,2013-03-12 15:40:00,
2013-03-12 10:45:00,56.1,37.7,30.17,NNE,29,2.0,5.0,50,0.00,,,0.00,Wunderground v.1.15,2013-03-12 15:45:00,
2013-03-12 10:50:00,56.4,39.0,30.17,North,351,2.0,2.0,52,0.00,,,0.00,Wunderground v.1.15,2013-03-12 15:50:00,
2013-03-12 10:55:00,56.7,37.2,30.17,NW,308,2.0,5.0,48,0.00,,,0.00,Wunderground v.1.15,2013-03-12 15:55:00,
2013-03-12 11:00:00,56.6,37.1,30.17,NNW,346,3.0,3.0,48,0.00,,,0.00,Wunderground v.1.15,2013-03-12 16:00:00,
2013-03-12 11:49:00,58.4,37.1,30.17,NW,309,3.0,3.0,45,0.00,,,0.00,Wunderground v.1.15,2013-03-12 16:49:00,
2013-03-12 11:54:00,58.5,38.3,30.17,NNE,15,3.0,3.0,47,0.00,,,0.00,Wunderground v.1.15,2013-03-12 16:54:00,
2013-03-12 11:59:00,58.9,38.1,30.17,NW,308,2.0,2.0,46,0.00,,,0.00,Wunderground v.1.15,2013-03-12 16:59:00,
2013-03-12 12:05:00,59.1,37.8,30.17,NW,324,3.0,3.0,45,0.00,,,0.00,Wunderground v.1.15,2013-03-12 17:05:00,
2013-03-12 12:10:00,59.3,37.9,30.17,NW,318,3.0,3.0,45,0.00,,,0.00,Wunderground v.1.15,2013-03-12 17:10:00,
2013-03-12 12:15:00,59.7,37.7,30.17,WNW,283,2.0,3.0,44,0.00,,,0.00,Wunderground v.1.15,2013-03-12 17:15:00,
2013-03-12 12:20:00,60.0,37.4,30.18,NW,308,3.0,5.0,43,0.00,,,0.00,Wunderground v.1.15,2013-03-12 17:20:00,
2013-03-12 12:25:00,59.9,38.5,30.17,NW,325,3.0,5.0,45,0.00,,,0.00,Wunderground v.1.15,2013-03-12 17:25:00,
2013-03-12 12:30:00,60.2,37.6,30.17,East,86,3.0,3.0,43,0.00,,,0.00,Wunderground v.1.15,2013-03-12 17:30:00,
2013-03-12 12:35:00,60.9,37.6,30.17,NNW,348,2.0,3.0,42,0.00,,,0.00,Wunderground v.1.15,2013-03-12 17:35:00,
2013-03-12 12:40:00,61.2,37.9,30.17,NW,320,2.0,2.0,42,0.00,,,0.00,Wunderground v.1.15,2013-03-12 17:40:00,
2013-03-12 12:45:00,61.7,37.7,30.17,North,356,2.0,3.0,41,0.00,,,0.00,Wunderground v.1.15,2013-03-12 17:45:00,
2013-03-12 12:50:00,61.6,37.0,30.17,WNW,288,3.0,5.0,40,0.00,,,0.00,Wunderground v.1.15,2013-03-12 17:50:00,
2013-03-12 12:55:00,61.5,35.0,30.16,NW,325,3.0,5.0,37,0.00,,,0.00,Wunderground v.1.15,2013-03-12 17:55:00,
2013-03-12 13:00:00,61.3,35.5,30.16,WNW,295,4.0,7.0,38,0.00,,,0.00,Wunderground v.1.15,2013-03-12 18:00:00,
2013-03-12 13:05:00,61.3,36.8,30.16,NNW,330,5.0,7.0,40,0.00,,,0.00,Wunderground v.1.15,2013-03-12 18:05:00,
2013-03-12 13:15:00,62.4,37.7,30.16,WNW,290,2.0,4.0,40,0.00,,,0.00,Wunderground v.1.15,2013-03-12 18:15:00,
2013-03-12 13:20:00,62.5,36.5,30.15,WNW,293,3.0,3.0,38,0.00,,,0.00,Wunderground v.1.15,2013-03-12 18:20:00,
2013-03-12 13:25:00,62.6,37.3,30.15,NNE,20,2.0,3.0,39,0.00,,,0.00,Wunderground v.1.15,2013-03-12 18:25:00,
2013-03-12 13:30:00,63.3,37.9,30.14,NNW,330,2.0,3.0,39,0.00,,,0.00,Wunderground v.1.15,2013-03-12 18:30:00,
2013-03-12 13:35:00,63.6,38.2,30.14,NW,316,2.0,6.0,39,0.00,,,0.00,Wunderground v.1.15,2013-03-12 18:35:00,
2013-03-12 13:40:00,63.6,37.5,30.14,WNW,302,2.0,2.0,38,0.00,,,0.00,Wunderground v.1.15,2013-03-12 18:40:00,
2013-03-12 13:45:00,63.9,38.4,30.14,West,266,3.0,3.0,39,0.00,,,0.00,Wunderground v.1.15,2013-03-12 18:45:00,
2013-03-12 13:50:00,63.9,38.4,30.14,NE,44,2.0,2.0,39,0.00,,,0.00,Wunderground v.1.15,2013-03-12 18:50:00,
2013-03-12 13:55:00,64.4,38.9,30.13,North,7,3.0,3.0,39,0.00,,,0.00,Wunderground v.1.15,2013-03-12 18:55:00,
2013-03-12 14:00:00,64.1,37.3,30.13,NW,318,3.0,3.0,37,0.00,,,0.00,Wunderground v.1.15,2013-03-12 19:00:00,
2013-03-12 14:05:00,64.6,38.4,30.13,NW,304,2.0,3.0,38,0.00,,,0.00,Wunderground v.1.15,2013-03-12 19:05:00,
2013-03-12 14:10:00,64.5,36.9,30.13,WNW,285,3.0,4.0,36,0.00,,,0.00,Wunderground v.1.15,2013-03-12 19:10:00,
2013-03-12 14:20:00,64.6,37.7,30.12,NNW,334,3.0,3.0,37,0.00,,,0.00,Wunderground v.1.15,2013-03-12 19:20:00,
2013-03-12 14:25:00,64.9,36.6,30.12,NE,44,3.0,3.0,35,0.00,,,0.00,Wunderground v.1.15,2013-03-12 19:25:00,
2013-03-12 14:30:00,65.2,37.6,30.12,WNW,297,3.0,3.0,36,0.00,,,0.00,Wunderground v.1.15,2013-03-12 19:30:00,
2013-03-12 14:35:00,65.3,38.3,30.12,WNW,297,3.0,6.0,37,0.00,,,0.00,Wunderground v.1.15,2013-03-12 19:35:00,
2013-03-12 14:40:00,65.1,36.8,30.12,WNW,295,4.0,6.0,35,0.00,,,0.00,Wunderground v.1.15,2013-03-12 19:40:00,
2013-03-12 14:45:00,65.1,36.8,30.12,NNE,16,5.0,6.0,35,0.00,,,0.00,Wunderground v.1.15,2013-03-12 19:45:00,
2013-03-12 14:50:00,65.2,38.3,30.11,WNW,295,4.0,4.0,37,0.00,,,0.00,Wunderground v.1.15,2013-03-12 19:50:00,
2013-03-12 14:55:00,65.0,38.1,30.11,NNW,328,4.0,4.0,37,0.00,,,0.00,Wunderground v.1.15,2013-03-12 19:55:00,
2013-03-12 15:00:00,65.8,41.4,30.11,West,264,3.0,3.0,41,0.00,,,0.00,Wunderground v.1.15,2013-03-12 20:00:00,
2013-03-12 15:05:00,65.6,38.6,30.11,NW,316,3.0,5.0,37,0.00,,,0.00,Wunderground v.1.15,2013-03-12 20:05:00,
2013-03-12 15:10:00,65.6,40.0,30.11,NW,304,4.0,4.0,39,0.00,,,0.00,Wunderground v.1.15,2013-03-12 20:10:00,
2013-03-12 15:15:00,66.1,39.7,30.11,West,281,3.0,4.0,38,0.00,,,0.00,Wunderground v.1.15,2013-03-12 20:15:00,
2013-03-12 15:20:00,66.3,39.2,30.11,North,356,2.0,5.0,37,0.00,,,0.00,Wunderground v.1.15,2013-03-12 20:20:00,
2013-03-12 15:25:00,66.6,38.8,30.10,North,355,2.0,5.0,36,0.00,,,0.00,Wunderground v.1.15,2013-03-12 20:25:00,
2013-03-12 15:30:00,66.3,38.5,30.10,WNW,301,4.0,4.0,36,0.00,,,0.00,Wunderground v.1.15,2013-03-12 20:30:00,
2013-03-12 15:35:00,66.3,39.9,30.10,WNW,285,4.0,4.0,38,0.00,,,0.00,Wunderground v.1.15,2013-03-12 20:35:00,
2013-03-12 15:40:00,66.6,39.5,30.10,SW,228,2.0,2.0,37,0.00,,,0.00,Wunderground v.1.15,2013-03-12 20:40:00,
2013-03-12 15:45:00,67.0,41.2,30.09,WNW,300,2.0,9.0,39,0.00,,,0.00,Wunderground v.1.15,2013-03-12 20:45:00,
2013-03-12 15:50:00,67.1,40.6,30.09,NNW,334,3.0,4.0,38,0.00,,,0.00,Wunderground v.1.15,2013-03-12 20:50:00,
2013-03-12 15:55:00,66.7,38.9,30.10,NW,316,5.0,5.0,36,0.00,,,0.00,Wunderground v.1.15,2013-03-12 20:55:00,
2013-03-12 16:00:00,66.8,40.4,30.10,SE,137,4.0,4.0,38,0.00,,,0.00,Wunderground v.1.15,2013-03-12 21:00:00,
2013-03-12 16:05:00,67.4,40.2,30.10,WNW,294,2.0,4.0,37,0.00,,,0.00,Wunderground v.1.15,2013-03-12 21:05:00,
2013-03-12 16:10:00,67.6,39.7,30.10,WNW,288,2.0,2.0,36,0.00,,,0.00,Wunderground v.1.15,2013-03-12 21:10:00,
2013-03-12 16:15:00,67.7,39.0,30.10,NNW,346,2.0,2.0,35,0.00,,,0.00,Wunderground v.1.15,2013-03-12 21:15:00,
2013-03-12 16:20:00,67.6,39.0,30.10,WSW,253,2.0,2.0,35,0.00,,,0.00,Wunderground v.1.15,2013-03-12 21:20:00,
2013-03-12 16:25:00,67.9,39.2,30.10,NNE,29,2.0,2.0,35,0.00,,,0.00,Wunderground v.1.15,2013-03-12 21:25:00,
2013-03-12 16:30:00,68.4,39.7,30.10,NNW,328,2.0,2.0,35,0.00,,,0.00,Wunderground v.1.15,2013-03-12 21:30:00,
2013-03-12 16:35:00,68.4,38.9,30.10,NNW,340,2.0,2.0,34,0.00,,,0.00,Wunderground v.1.15,2013-03-12 21:35:00,
2013-03-12 16:40:00,68.3,38.8,30.10,WNW,290,3.0,7.0,34,0.00,,,0.00,Wunderground v.1.15,2013-03-12 21:40:00,
2013-03-12 16:45:00,67.9,39.2,30.10,West,276,3.0,7.0,35,0.00,,,0.00,Wunderground v.1.15,2013-03-12 21:45:00,
2013-03-12 16:50:00,68.1,39.4,30.10,West,260,3.0,3.0,35,0.00,,,0.00,Wunderground v.1.15,2013-03-12 21:50:00,
2013-03-12 17:00:00,68.2,42.3,30.10,West,271,2.0,2.0,39,0.00,,,0.00,Wunderground v.1.15,2013-03-12 22:00:00,
2013-03-12 17:05:00,68.8,41.5,30.10,WNW,283,1.0,2.0,37,0.00,,,0.00,Wunderground v.1.15,2013-03-12 22:05:00,
2013-03-12 17:10:00,68.0,41.4,30.10,West,281,2.0,3.0,38,0.00,,,0.00,Wunderground v.1.15,2013-03-12 22:10:00,
2013-03-12 17:15:00,67.8,43.9,30.10,WNW,288,3.0,3.0,42,0.00,,,0.00,Wunderground v.1.15,2013-03-12 22:15:00,
2013-03-12 17:20:00,67.6,42.4,30.10,WNW,283,3.0,3.0,40,0.00,,,0.00,Wunderground v.1.15,2013-03-12 22:20:00,
2013-03-12 17:25:00,67.8,41.9,30.10,West,270,3.0,6.0,39,0.00,,,0.00,Wunderground v.1.15,2013-03-12 22:25:00,
2013-03-12 17:35:00,67.7,40.5,30.10,West,280,3.0,3.0,37,0.00,,,0.00,Wunderground v.1.15,2013-03-12 22:35:00,
2013-03-12 17:40:00,68.1,42.2,30.10,WNW,291,2.0,2.0,39,0.00,,,0.00,Wunderground v.1.15,2013-03-12 22:40:00,
2013-03-12 17:45:00,68.0,41.4,30.10,NW,325,2.0,2.0,38,0.00,,,0.00,Wunderground v.1.15,2013-03-12 22:45:00,
2013-03-12 17:50:00,67.7,41.2,30.10,WNW,284,2.0,2.0,38,0.00,,,0.00,Wunderground v.1.15,2013-03-12 22:50:00,
2013-03-12 17:55:00,67.2,41.4,30.10,WNW,295,3.0,4.0,39,0.00,,,0.00,Wunderground v.1.15,2013-03-12 22:55:00,
2013-03-12 18:00:00,66.8,41.0,30.10,WNW,283,3.0,3.0,39,0.00,,,0.00,Wunderground v.1.15,2013-03-12 23:00:00,
2013-03-12 18:05:00,66.9,41.1,30.11,WNW,288,2.0,3.0,39,0.00,,,0.00,Wunderground v.1.15,2013-03-12 23:05:00,
2013-03-12 18:10:00,66.9,41.8,30.11,West,280,2.0,2.0,40,0.00,,,0.00,Wunderground v.1.15,2013-03-12 23:10:00,
2013-03-12 18:15:00,66.9,42.4,30.11,WNW,290,2.0,5.0,41,0.00,,,0.00,Wunderground v.1.15,2013-03-12 23:15:00,
2013-03-12 18:20:00,66.6,40.9,30.11,West,267,2.0,2.0,39,0.00,,,0.00,Wunderground v.1.15,2013-03-12 23:20:00,
2013-03-12 18:25:00,66.2,40.5,30.11,WNW,291,2.0,4.0,39,0.00,,,0.00,Wunderground v.1.15,2013-03-12 23:25:00,
2013-03-12 18:30:00,65.6,40.6,30.12,WSW,255,2.0,2.0,40,0.00,,,0.00,Wunderground v.1.15,2013-03-12 23:30:00,
2013-03-12 18:35:00,65.1,39.5,30.12,WSW,239,2.0,4.0,39,0.00,,,0.00,Wunderground v.1.15,2013-03-12 23:35:00,
2013-03-12 18:40:00,64.7,39.8,30.12,West,281,2.0,2.0,40,0.00,,,0.00,Wunderground v.1.15,2013-03-12 23:40:00,
2013-03-12 18:45:00,64.2,39.4,30.13,West,272,3.0,3.0,40,0.00,,,0.00,Wunderground v.1.15,2013-03-12 23:45:00,
2013-03-12 18:50:00,63.8,40.3,30.13,WNW,284,2.0,2.0,42,0.00,,,0.00,Wunderground v.1.15,2013-03-12 23:50:00,
2013-03-12 18:55:00,63.3,39.8,30.13,SW,215,2.0,2.0,42,0.00,,,0.00,Wunderground v.1.15,2013-03-12 23:55:00,
2013-03-12 19:00:00,63.2,40.3,30.13,West,280,2.0,2.0,43,0.00,,,0.00,Wunderground v.1.15,2013-03-13 00:00:00,
2013-03-12 19:10:00,62.4,39.6,30.13,West,259,1.0,4.0,43,0.00,,,0.00,Wunderground v.1.15,2013-03-13 00:10:00,
2013-03-12 19:15:00,62.1,39.3,30.14,WNW,288,2.0,4.0,43,0.00,,,0.00,Wunderground v.1.15,2013-03-13 00:15:00,
2013-03-12 19:20:00,61.8,39.1,30.14,West,266,2.0,2.0,43,0.00,,,0.00,Wunderground v.1.15,2013-03-13 00:20:00,
2013-03-12 19:25:00,61.5,39.4,30.14,West,270,1.0,2.0,44,0.00,,,0.00,Wunderground v.1.15,2013-03-13 00:25:00,
2013-03-12 19:30:00,61.1,39.6,30.14,West,276,1.0,1.0,45,0.00,,,0.00,Wunderground v.1.15,2013-03-13 00:30:00,
2013-03-12 19:35:00,60.8,39.9,30.14,West,272,1.0,2.0,46,0.00,,,0.00,Wunderground v.1.15,2013-03-13 00:35:00,
2013-03-12 19:40:00,60.4,39.5,30.14,West,272,0.0,2.0,46,0.00,,,0.00,Wunderground v.1.15,2013-03-13 00:40:00,
2013-03-12 19:45:00,60.1,40.3,30.15,West,273,0.0,2.0,48,0.00,,,0.00,Wunderground v.1.15,2013-03-13 00:45:00,
2013-03-12 19:50:00,59.5,41.3,30.15,West,273,0.0,2.0,51,0.00,,,0.00,Wunderground v.1.15,2013-03-13 00:50:00,
2013-03-12 19:55:00,59.0,39.9,30.15,West,272,0.0,2.0,49,0.00,,,0.00,Wunderground v.1.15,2013-03-13 00:55:00,
2013-03-12 20:00:00,58.7,40.1,30.15,West,273,0.0,2.0,50,0.00,,,0.00,Wunderground v.1.15,2013-03-13 01:00:00,
2013-03-12 20:05:00,58.3,39.7,30.16,West,274,0.0,2.0,50,0.00,,,0.00,Wunderground v.1.15,2013-03-13 01:05:00,
2013-03-12 20:15:00,57.8,40.3,30.16,West,272,0.0,2.0,52,0.00,,,0.00,Wunderground v.1.15,2013-03-13 01:15:00,
2013-03-12 20:20:00,57.1,40.1,30.16,West,274,0.0,2.0,53,0.00,,,0.00,Wunderground v.1.15,2013-03-13 01:20:00,
2013-03-12 20:25:00,56.6,41.1,30.16,West,276,0.0,2.0,56,0.00,,,0.00,Wunderground v.1.15,2013-03-13 01:25:00,
2013-03-12 20:30:00,56.5,41.9,30.16,West,276,0.0,2.0,58,0.00,,,0.00,Wunderground v.1.15,2013-03-13 01:30:00,
2013-03-12 20:35:00,56.5,41.0,30.16,WNW,288,1.0,2.0,56,0.00,,,0.00,Wunderground v.1.15,2013-03-13 01:35:00,
2013-03-12 20:45:00,57.1,40.6,30.17,WNW,284,1.0,2.0,54,0.00,,,0.00,Wunderground v.1.15,2013-03-13 01:45:00,
2013-03-12 20:50:00,56.7,40.7,30.17,WNW,284,1.0,2.0,55,0.00,,,0.00,Wunderground v.1.15,2013-03-13 01:50:00,
2013-03-12 20:55:00,56.8,40.8,30.17,WNW,291,1.0,2.0,55,0.00,,,0.00,Wunderground v.1.15,2013-03-13 01:55:00,
2013-03-12 20:59:00,57.0,40.5,30.17,WNW,294,1.0,2.0,54,0.00,,,0.00,Wunderground v.1.15,2013-03-13 01:59:00,
2013-03-12 21:04:00,56.9,41.4,30.18,WNW,290,1.0,2.0,56,0.00,,,0.00,Wunderground v.1.15,2013-03-13 02:04:00,
2013-03-12 21:09:00,56.8,41.3,30.18,WNW,290,1.0,2.0,56,0.00,,,0.00,Wunderground v.1.15,2013-03-13 02:09:00,
2013-03-12 21:15:00,56.4,41.3,30.18,WNW,290,1.0,2.0,57,0.00,,,0.00,Wunderground v.1.15,2013-03-13 02:15:00,
2013-03-12 21:20:00,56.2,40.7,30.18,WNW,296,1.0,2.0,56,0.00,,,0.00,Wunderground v.1.15,2013-03-13 02:20:00,
2013-03-12 21:25:00,56.5,41.0,30.19,WNW,296,1.0,2.0,56,0.00,,,0.00,Wunderground v.1.15,2013-03-13 02:25:00,
2013-03-12 21:30:00,56.5,41.4,30.19,WNW,296,1.0,1.0,57,0.00,,,0.00,Wunderground v.1.15,2013-03-13 02:30:00,
2013-03-12 21:35:00,56.0,41.4,30.19,WNW,296,1.0,2.0,58,0.00,,,0.00,Wunderground v.1.15,2013-03-13 02:35:00,
2013-03-12 21:40:00,55.3,41.2,30.19,WNW,297,1.0,2.0,59,0.00,,,0.00,Wunderground v.1.15,2013-03-13 02:40:00,
2013-03-12 21:45:00,55.3,40.8,30.19,NW,308,1.0,2.0,58,0.00,,,0.00,Wunderground v.1.15,2013-03-13 02:45:00,
2013-03-12 21:50:00,55.5,41.0,30.20,NW,308,1.0,2.0,58,0.00,,,0.00,Wunderground v.1.15,2013-03-13 02:50:00,
2013-03-12 21:55:00,54.9,41.3,30.20,NW,308,1.0,2.0,60,0.00,,,0.00,Wunderground v.1.15,2013-03-13 02:55:00,
2013-03-12 22:00:00,54.5,41.3,30.20,NW,304,1.0,2.0,61,0.00,,,0.00,Wunderground v.1.15,2013-03-13 03:00:00,
2013-03-12 22:05:00,54.5,40.9,30.20,NW,304,1.0,2.0,60,0.00,,,0.00,Wunderground v.1.15,2013-03-13 03:05:00,
2013-03-12 22:10:00,54.2,41.0,30.20,NW,316,1.0,2.0,61,0.00,,,0.00,Wunderground v.1.15,2013-03-13 03:10:00,
2013-03-12 22:15:00,54.0,41.3,30.20,NW,316,0.0,2.0,62,0.00,,,0.00,Wunderground v.1.15,2013-03-13 03:15:00,
2013-03-12 22:25:00,53.5,41.6,30.21,WNW,297,1.0,2.0,64,0.00,,,0.00,Wunderground v.1.15,2013-03-13 03:25:00,
2013-03-12 22:30:00,53.2,41.7,30.21,WNW,296,1.0,1.0,65,0.00,,,0.00,Wunderground v.1.15,2013-03-13 03:30:00,
2013-03-12 22:35:00,53.2,41.7,30.21,WNW,297,1.0,2.0,65,0.00,,,0.00,Wunderground v.1.15,2013-03-13 03:35:00,
2013-03-12 22:40:00,52.9,41.4,30.21,WNW,296,0.0,2.0,65,0.00,,,0.00,Wunderground v.1.15,2013-03-13 03:40:00,
2013-03-12 22:45:00,52.2,41.2,30.21,NW,307,0.0,2.0,66,0.00,,,0.00,Wunderground v.1.15,2013-03-13 03:45:00,
2013-03-12 22:50:00,52.2,41.2,30.21,NW,310,1.0,2.0,66,0.00,,,0.00,Wunderground v.1.15,2013-03-13 03:50:00,
2013-03-12 22:55:00,52.5,41.5,30.21,NW,318,1.0,2.0,66,0.00,,,0.00,Wunderground v.1.15,2013-03-13 03:55:00,
2013-03-12 23:00:00,52.5,41.5,30.21,NW,316,1.0,1.0,66,0.00,,,0.00,Wunderground v.1.15,2013-03-13 04:00:00,
2013-03-12 23:05:00,51.9,42.8,30.20,NW,314,0.0,2.0,71,0.00,,,0.00,Wunderground v.1.15,2013-03-13 04:05:00,
2013-03-12 23:10:00,51.2,42.1,30.20,WNW,294,0.0,2.0,71,0.00,,,0.00,Wunderground v.1.15,2013-03-13 04:10:00,
2013-03-12 23:15:00,50.9,43.6,30.21,WNW,294,0.0,2.0,76,0.00,,,0.00,Wunderground v.1.15,2013-03-13 04:15:00,
2013-03-12 23:20:00,50.5,44.6,30.21,WNW,294,0.0,2.0,80,0.00,,,0.00,Wunderground v.1.15,2013-03-13 04:20:00,
2013-03-12 23:25:00,50.1,44.8,30.20,WNW,294,0.0,2.0,82,0.00,,,0.00,Wunderground v.1.15,2013-03-13 04:25:00,
2013-03-12 23:30:00,49.6,44.3,30.20,WNW,294,0.0,2.0,82,0.00,,,0.00,Wunderground v.1.15,2013-03-13 04:30:00,
2013-03-12 23:35:00,49.4,41.5,30.21,WNW,294,1.0,2.0,74,0.00,,,0.00,Wunderground v.1.15,2013-03-13 04:35:00,
2013-03-12 23:40:00,50.0,41.0,30.21,NW,318,1.0,1.0,71,0.00,,,0.00,Wunderground v.1.15,2013-03-13 04:40:00,
2013-03-12 23:45:00,50.1,41.8,30.21,NW,317,0.0,2.0,73,0.00,,,0.00,Wunderground v.1.15,2013-03-13 04:45:00,
2013-03-12 23:50:00,49.7,42.4,30.21,NW,318,0.0,2.0,76,0.00,,,0.00,Wunderground v.1.15,2013-03-13 04:50:00,
2013-03-12 23:55:00,49.2,43.0,30.21,NW,316,0.0,2.0,79,0.00,,,0.00,Wunderground v.1.15,2013-03-13 04:55:00,